| time (UTC) | temp F | wind direction | speed MPH | gust MPH | rain 1hr in | rain 24hr in | rain mn in | humidity % | barometer mb |
| 20260504045917 | 46 | 225 | 4.0 | 0.0 | 0.00 | 0.00 | 0.00 | 81 | 1015.7 |
| 20260504044916 | 46 | 245 | 0.0 | 0.0 | 0.00 | 0.00 | 0.00 | 81 | 1015.7 |
| 20260504043917 | 46 | 150 | 0.0 | 0.0 | 0.00 | 0.00 | 0.00 | 81 | 1015.7 |
| 20260504042916 | 46 | 150 | 0.0 | 0.0 | 0.00 | 0.00 | 0.00 | 80 | 1015.7 |
| 20260504041916 | 46 | 148 | 0.0 | 0.0 | 0.00 | 0.00 | 0.00 | 79 | 1015.7 |
| 20260504040917 | 47 | 320 | 0.0 | 0.0 | 0.00 | 0.00 | 0.00 | 79 | 1015.8 |
| 20260504035916 | 47 | 325 | 0.0 | 0.0 | 0.00 | 0.00 | 0.00 | 78 | 1015.8 |
| 20260504034916 | 48 | 33 | 5.0 | 0.0 | 0.00 | 0.00 | 0.00 | 78 | 1015.8 |
| 20260504033916 | 48 | 325 | 4.0 | 0.0 | 0.00 | 0.00 | 0.00 | 78 | 1015.8 |
| 20260504032916 | 46 | 263 | 4.0 | 0.0 | 0.00 | 0.00 | 0.00 | 82 | 1015.8 |
| 20260504031916 | 45 | 168 | 0.0 | 0.0 | 0.00 | 0.00 | 0.00 | 81 | 1015.9 |
| 20260504030917 | 45 | 335 | 3.0 | 0.0 | 0.00 | 0.00 | 0.00 | 81 | 1016.0 |
| 20260504025916 | 45 | 315 | 3.0 | 0.0 | 0.00 | 0.00 | 0.00 | 80 | 1016.0 |
| 20260504024916 | 45 | 195 | 3.0 | 0.0 | 0.00 | 0.00 | 0.00 | 80 | 1016.1 |
| 20260504023917 | 46 | 318 | 0.0 | 0.0 | 0.00 | 0.00 | 0.00 | 79 | 1016.1 |
| 20260504022917 | 47 | 320 | 0.0 | 0.0 | 0.00 | 0.00 | 0.00 | 78 | 1016.1 |
| 20260504021917 | 47 | 320 | 0.0 | 0.0 | 0.00 | 0.00 | 0.00 | 77 | 1016.1 |
| 20260504020916 | 48 | 320 | 3.0 | 0.0 | 0.00 | 0.00 | 0.00 | 76 | 1016.1 |
| 20260504015917 | 48 | 230 | 0.0 | 0.0 | 0.00 | 0.00 | 0.00 | 75 | 1016.1 |
| 20260504014916 | 49 | 355 | 0.0 | 0.0 | 0.00 | 0.00 | 0.00 | 75 | 1016.1 |
| 20260504013917 | 50 | 350 | 0.0 | 0.0 | 0.00 | 0.00 | 0.00 | 74 | 1016.1 |
| 20260504012916 | 50 | 340 | 0.0 | 0.0 | 0.00 | 0.00 | 0.00 | 73 | 1016.1 |
| 20260504011917 | 51 | 18 | 0.0 | 0.0 | 0.00 | 0.00 | 0.00 | 71 | 1016.1 |
| 20260504010916 | 52 | 0 | 3.0 | 0.0 | 0.00 | 0.00 | 0.00 | 70 | 1016.0 |
| 20260504005916 | 53 | 325 | 6.0 | 0.0 | 0.00 | 0.00 | 0.00 | 69 | 1016.0 |
| 20260504004916 | 53 | 240 | 4.0 | 0.0 | 0.00 | 0.00 | 0.00 | 68 | 1016.0 |
| 20260504003916 | 53 | 273 | 3.0 | 0.0 | 0.00 | 0.00 | 0.00 | 68 | 1016.1 |
| 20260504002916 | 53 | 318 | 3.0 | 0.0 | 0.00 | 0.00 | 0.00 | 69 | 1016.1 |
| 20260504001917 | 53 | 315 | 4.0 | 0.0 | 0.00 | 0.00 | 0.00 | 68 | 1016.2 |
| 20260504000917 | 53 | 340 | 4.0 | 0.0 | 0.00 | 0.00 | 0.00 | 69 | 1016.3 |
| 20260503235916 | 53 | 355 | 3.0 | 0.0 | 0.00 | 0.00 | 0.00 | 70 | 1016.2 |
| 20260503234917 | 53 | 355 | 0.0 | 0.0 | 0.00 | 0.00 | 0.00 | 70 | 1016.2 |
| 20260503233917 | 53 | 0 | 0.0 | 0.0 | 0.00 | 0.00 | 0.00 | 69 | 1016.2 |
| 20260503232919 | 53 | 0 | 0.0 | 0.0 | 0.00 | 0.00 | 0.00 | 69 | 1016.2 |
| 20260503231916 | 53 | 335 | 0.0 | 0.0 | 0.00 | 0.00 | 0.00 | 68 | 1016.2 |
| 20260503230917 | 54 | 335 | 0.0 | 0.0 | 0.00 | 0.00 | 0.00 | 68 | 1016.2 |
| 20260503225917 | 54 | 335 | 0.0 | 0.0 | 0.00 | 0.00 | 0.00 | 67 | 1016.2 |
| 20260503224916 | 54 | 335 | 0.0 | 0.0 | 0.00 | 0.00 | 0.00 | 67 | 1016.2 |
| 20260503223916 | 54 | 340 | 0.0 | 0.0 | 0.00 | 0.00 | 0.00 | 66 | 1016.3 |
| 20260503222917 | 54 | 350 | 0.0 | 0.0 | 0.00 | 0.00 | 0.00 | 67 | 1016.2 |
| 20260503221916 | 54 | 310 | 0.0 | 0.0 | 0.00 | 0.00 | 0.00 | 67 | 1016.3 |
| 20260503220917 | 54 | 345 | 0.0 | 0.0 | 0.00 | 0.00 | 0.00 | 66 | 1016.2 |
| 20260503215916 | 54 | 310 | 0.0 | 0.0 | 0.00 | 0.00 | 0.00 | 66 | 1016.2 |
| 20260503214916 | 54 | 310 | 0.0 | 0.0 | 0.00 | 0.00 | 0.00 | 66 | 1016.1 |
| 20260503213917 | 54 | 310 | 0.0 | 0.0 | 0.00 | 0.00 | 0.00 | 65 | 1016.1 |
| 20260503212916 | 55 | 310 | 0.0 | 0.0 | 0.00 | 0.00 | 0.00 | 64 | 1016.1 |
| 20260503211916 | 55 | 330 | 0.0 | 0.0 | 0.00 | 0.00 | 0.00 | 63 | 1016.1 |
| 20260503210916 | 55 | 108 | 0.0 | 0.0 | 0.00 | 0.00 | 0.00 | 62 | 1016.1 |
| 20260503205916 | 55 | 93 | 0.0 | 0.0 | 0.00 | 0.00 | 0.00 | 62 | 1016.1 |
| 20260503204916 | 55 | 155 | 0.0 | 0.0 | 0.00 | 0.00 | 0.00 | 61 | 1016.1 |
| 20260503203917 | 56 | 200 | 0.0 | 0.0 | 0.00 | 0.00 | 0.00 | 60 | 1016.1 |
| 20260503202917 | 56 | 200 | 0.0 | 0.0 | 0.00 | 0.00 | 0.00 | 58 | 1016.0 |
| 20260503201917 | 56 | 200 | 0.0 | 0.0 | 0.00 | 0.00 | 0.00 | 58 | 1016.0 |
| 20260503200916 | 56 | 200 | 0.0 | 0.0 | 0.00 | 0.00 | 0.00 | 59 | 1016.0 |
| 20260503195916 | 56 | 120 | 0.0 | 0.0 | 0.00 | 0.00 | 0.00 | 56 | 1015.9 |
| 20260503194917 | 56 | 85 | 0.0 | 0.0 | 0.00 | 0.00 | 0.00 | 57 | 1015.9 |
| 20260503193917 | 57 | 138 | 4.0 | 0.0 | 0.00 | 0.00 | 0.00 | 56 | 1015.7 |
| 20260503192916 | 57 | 208 | 7.0 | 0.0 | 0.00 | 0.00 | 0.00 | 54 | 1015.7 |
| 20260503191917 | 58 | 23 | 6.0 | 0.0 | 0.00 | 0.00 | 0.00 | 53 | 1015.6 |
| 20260503190916 | 58 | 223 | 0.0 | 0.0 | 0.00 | 0.00 | 0.00 | 54 | 1015.5 |
| 20260503185916 | 58 | 185 | 11.0 | 0.0 | 0.00 | 0.00 | 0.00 | 54 | 1015.3 |
| 20260503184916 | 58 | 293 | 7.0 | 0.0 | 0.00 | 0.00 | 0.00 | 53 | 1015.2 |
| 20260503183916 | 58 | 358 | 10.0 | 0.0 | 0.00 | 0.00 | 0.00 | 53 | 1015.2 |
| 20260503182916 | 58 | 120 | 5.0 | 0.0 | 0.00 | 0.00 | 0.00 | 54 | 1015.3 |
| 20260503181916 | 58 | 205 | 7.0 | 0.0 | 0.00 | 0.00 | 0.00 | 54 | 1015.2 |
| 20260503180916 | 58 | 240 | 13.0 | 0.0 | 0.00 | 0.00 | 0.00 | 54 | 1015.2 |
| 20260503175916 | 58 | 345 | 4.0 | 0.0 | 0.00 | 0.00 | 0.00 | 56 | 1015.1 |
| 20260503174916 | 58 | 160 | 6.0 | 0.0 | 0.00 | 0.00 | 0.00 | 58 | 1015.2 |
| 20260503173917 | 58 | 175 | 4.0 | 0.0 | 0.00 | 0.00 | 0.00 | 60 | 1015.2 |
| 20260503172916 | 58 | 313 | 5.0 | 0.0 | 0.00 | 0.00 | 0.00 | 61 | 1015.6 |
| 20260503171917 | 58 | 173 | 5.0 | 0.0 | 0.00 | 0.00 | 0.00 | 58 | 1016.0 |
| 20260503170916 | 60 | 213 | 10.0 | 0.0 | 0.00 | 0.00 | 0.00 | 53 | 1015.7 |
| 20260503150917 | 69 | 348 | 10.0 | 0.0 | 0.00 | 0.00 | 0.00 | 42 | 1014.7 |
| 20260503130916 | 72 | 320 | 5.0 | 0.0 | 0.00 | 0.00 | 0.00 | 41 | 1015.1 |
| 20260503080917 | 69 | 345 | 4.0 | 0.0 | 0.00 | 0.00 | 0.00 | 51 | 1017.1 |
| 20260503072916 | 65 | 130 | 3.0 | 0.0 | 0.00 | 0.00 | 0.00 | 62 | 1017.1 |
| 20260503071917 | 63 | 30 | 0.0 | 0.0 | 0.00 | 0.00 | 0.00 | 67 | 1017.2 |
| 20260503070916 | 61 | 203 | 0.0 | 0.0 | 0.00 | 0.00 | 0.00 | 70 | 1017.2 |